Погода в Ставрополе

Погода в Ставрополе : погода сейчас, прогноз погоды и архив. Всё, что Вы хотите узнать о погоде в Ставрополе!

Поиск расширенной информации на нашем сайте:

Другие новости

Новости СМИ2

Главная страница сайта

Новости сайта

03.07.2017

Напоминаем, что на нашем специализированном сайте Метеоцентр.Азия вы можете получить высокодетализированные автоматические прогнозы погоды по пунктам России, СНГ и мира в авиационном формате (включающие направление и скорость ветра, видимость, явления погоды, количество и форму облачности, нижнюю и верхнюю границу облачности).


Погода в Ставрополе - сегодня

Время (UTC), дата Ветер
(°,м/с) 
Видим.   Явления Облачность Т
(°С)
Тd
(°С)
f(%) Тe
(°С)
Pmin
(гПа)
dP
(гПа)
Po
(мм)
O2
(г/м3)
Тmin Tmax R s Состояние
почвы
21 18.05.18 290 (З) 20000 м    6/0 средняя 
[Ac trans]
+17.8 +8.9 56 +18  1015.9  -0.3  723  272           
00 19.05.18 210 (ЮЗ) 20000 м    6/3 600 м средняя 
[Sc|Ac trans]
+16 +9.8 67 +19  1016.3  0.2  723  273           
03 19.05.18 170 (Ю) 20000 м    6/0 средняя 
[Ac trans]
+16.8 +10.3 65 +20  1016.2  -0.1  723  273  +14.4        сухая 
06 19.05.18 180 (Ю) 20000 м    4/0 верхняя 
[Ci fib]
+22.6 +11.7 50 +27  1015.3  0.1  723  267           
09 19.05.18 170 (Ю) 20000 м    6/3 600 м верхняя 
[Cu hum|Ci fib]
+26 +10.6 38 +29  1014.2  -0.6  723  264           
12 19.05.18 270 (З) 20000 м    5/3 600 м верхняя 
[Cu hum|Ci fib]
+26.6 +8.5 32 +27  1013.7  -0.4  722  264           
15 19.05.18 340 (С) 20000 м    6/3 1000 м средняя, верхняя 
[Sc diur, vesp|Ac trans|Ci fib]
+25.2 +7.1 31 +25  1013.6  -0.4  722  265    +26.9       
18 19.05.18 тихо ()   20000 м    8/3 600 м кучево-дожд., средняя, верхняя 
[Cb calv|Ac trans|Ci fib]
+20.3 +10.2 52 +22  1015.2  0.8  723  269           
21 19.05.18 360 (С) 20000 м    6/3 1000 м кучево-дожд., средняя, верхняя 
[Cb calv|Ac trans|Ci fib]
+20.4 +9.1 48 +21  1014.3  -0.9  722  269           
00 20.05.18 тихо ()   20000 м    5/0 средняя, верхняя 
[Ac trans|Ci fib]
+18 +7.7 51 +18  1014.7  722  272           
03 20.05.18 120 (ЮВ) 20000 м    6/1 1000 м кучево-дожд., средняя 
[Cb calv|Ac trans]
+18.7 +9.4 55 +21  1014.5  722  271  +17.1        сухая 
06 20.05.18 100 (В) 20000 м    3/0 средняя 
[Ac trans]
+23.1 +11.1 47 +27  1014.1  0.3  722  266           
09 20.05.18 080 (В) 20000 м    9/5 600 м кучево-дожд., средняя 
[Cb calv|Ac trans]
+25.2 +12.1 44 +30  1013  -0.7  722  264           
12 20.05.18 090 (В) 20000 м  гроза без осадков  9/6 1000 м кучево-дожд., средняя 
[Cb calv|Ac trans]
+26.2 +10.3 37 +29  1012.1  -0.7  721  263           
15 20.05.18 310 (СЗ) 10 км  гроза, ливневой дождь  10/8 600 м кучево-дожд., средняя 
[Cb cap|Ac und]
+16.5 +13.3 81 +24  1016  -0.7  723  272    +27.5     
18 20.05.18 тихо ()   20000 м  {гроза, ливн. осадки}  8/3 1000 м кучево-дожд., средняя 
[Cb cap|Ac As]
+15.3 +13.6 90 +23  1014.4  -1.8  722  273           
21 20.05.18 310 (СЗ) 20000 м    8/3 1000 м средняя 
[Sc|Ac trans]
+16.5 +12.3 76 +23  1013.8  -0.4  721  272           
00 21.05.18 тихо ()   20000 м    6/0 средняя 
[Ac trans]
+15.9 +11.7 76 +20  1014.2  0.3  722  272           
03 21.05.18 тихо ()   20000 м    10/4 1000 м кучево-дожд., средняя 
[Cb cap|Ac und]
+17.3 +12.6 74 +23  1014.5  0.6  722  271  +12.9      влажная 
06 21.05.18 290 (З) 20000 м  слаб. ливневой дождь  10/5 1000 м кучево-дожд., средняя 
[Cb cap|Ac und]
+19 +13.7 71 +27  1015.3  723  269           
09 21.05.18 290 (З) 5{11}  10 км  слаб. ливневой дождь  10/6 300 м кучево-дожд., средняя 
[Cb cap|Ac und]
+16.6 +15.3 92 +26  1017.1  1.3  724  272           
12 21.05.18 320 (СЗ) 20000 м  в посл. час ливневой дождь  10/4 600 м кучево-дожд., средняя 
[Cb calv|Ac und]
+19 +13.4 70 +27  1017  0.3  724  270           
15 21.05.18 тихо ()   20000 м    8/3 600 м средняя, верхняя 
[Sc diur, vesp|Ac trans|Ci fib]
+19.7 +12.9 65 +26  1017.3  0.4  724  270    +21.5     
18 21.05.18 тихо ()   20000 м    4/0 средняя 
[Ac trans]
+16.6 +12.8 78 +23  1018.4  0.5  725  273           
21 21.05.18 300 (СЗ) 20000 м    3/0 средняя 
[Ac trans]
+16.9 +11.6 71 +22  1018.2  0.1  725  273           
Время (UTC), дата Ветер
(°,м/с) 
Видим.   Явления Облачность Т
(°С)
Тd
(°С)
f(%) Тe
(°С)
Pmin
(гПа)
dP
(гПа)
Po
(мм)
O2
(г/м3)
Тmin Tmax R s Состояние
почвы

Для получения пояснительной информации подведите курсор к названию столбца.

ПОГОДА в Ставрополе - архив

Всё, что Вы хотите узнать о погоде в Ставрополе - удобно и подробно!

Выберите нужную дату (начиная с 1 января 2015* года) и нажмите кнопку "Найти".
Будут отображены архивные сводки погоды по пункту Ставрополь, начиная с указанной даты.


Отображать данные в формате CSV (для использования в таблицах Excel)


Внимание! Наш архив погоды предназначен исключительно для личного некоммерческого использования в познавательных целях. Если Вам необходимы официальные справки о состоянии погоды (для производственных, юридических, коммерческих и т.п. целей), обращайтесь в органы Росгидромета.

*Примечание: данная дата относится к архиву по метеостанциям СССР (Россия, СНГ, Балтия).
Архив по метеостанциям Зарубежной Европы и Азии (кроме Китая) хранится 10 дней, по другим регионам земного шара (Китай, Африка, Америка, Австралия, Океания) - 1 день.

Ставрополь - район местоположения метеостанции


Название, широта, долгота, высота метеостанции:
Ставрополь 45.1°ш. 42.1°д. 452 м над ур. моря [Российская Федерация]

Дополнительная информация

В oтличие oт бoльшинства пoгoдных сайтoв мы публикуем пoдрoбную метеoинфoрмацию в детальнoм прoфессиoнальнoм фoрмате.

Характеристики температуры и влажнoсти вoздуха измеряются на высoте 2 м в тени вдали oт зданий и деревьев.
Скoрoсть ветра измеряется на высoте 10 м (на урoвне рoста челoвека скoрoсть ветра ниже в 1.5-2 раза). Если метеoстанция нахoдится в гoрoде или в лесу, тo скoрoсть ветра занижена на 2-4 м/с пo сравнению с oткрытым местoм. Скoрoсть ветра над акватoриями крупных рек и oзёр, а также на вершинах хoлмoв на 2-5 м/с выше, чем в oбычных услoвиях.
Атмoсфернoе давление в разных тoчках местнoсти мoжет значительнo oтличаться oт давления на метеoстанции, в зависимoсти oт услoвий рельефа (при пoдъёме на 10 м давление пoнижается примернo на 1 мм рт.ст.).